Karpathos, Greece

12:46 PM EET on February 22, 2017 (GMT +0200)
Karpathos

Weather History for LGKP - October, 2012

Change the Weather History Date:

Thursday, October 4, 2012

  Actual Average Record
Temperature  
Mean Temperature 76 °F -  
Max Temperature 80 °F - - ()
Min Temperature 73 °F - - ()
Cooling Degree Days 12    
Growing Degree Days 26 (Base 50)    
Moisture  
Dew Point 68 °F    
Average Humidity 75    
Maximum Humidity 94    
Minimum Humidity 51    
Precipitation  
Precipitation 0.00 in - - ()
Sea Level Pressure  
Sea Level Pressure 29.86 in    
Wind  
Wind Speed 12 mph ()    
Max Wind Speed 17 mph    
Max Gust Speed -    
Visibility 6.2 miles    
Events      
T = Trace of Precipitation, MM = Missing Value Source: Averaged Metar Reports

Daily Weather History Graph

Daily Weather History Graph

Search for Another Location

Airport or City:

Trip Planner

Search our weather history database for the weather conditions in past years. The results will help you decide how hot, cold, wet, or windy it might be!

Date:

Astronomy

Oct. 04, 2012 Rise Set
Actual Time 7:08 AM EEST 6:50 PM EEST
Civil Twilight 6:43 AM EEST 7:16 PM EEST
Nautical Twilight 6:13 AM EEST 7:45 PM EEST
Astronomical Twilight 5:44 AM EEST 8:15 PM EEST
Moon 9:21 PM EEST (10/4) 10:59 AM EEST (10/4)
Length of Visible Light 12h 32m
Length of Day
11h 41m
Waning Gibbous, 84% of the Moon is Illuminated
Oct 4
Waning Gibbous
Oct 8
Last Quarter
Oct 15
New
Oct 22
First Quarter
Oct 29
Full

Hourly Weather History & Observations

Time (EEST) Temp. Heat Index Dew Point Humidity Pressure Visibility Wind Dir Wind Speed Gust Speed Precip Events Conditions
4:50 AM 73.4 °F - 71.6 °F 94% 29.89 in 6.2 mi West 11.5 mph - N/A   Partly Cloudy
5:50 AM 73.4 °F - 71.6 °F 94% 29.89 in 6.2 mi West 11.5 mph - N/A   Partly Cloudy
6:50 AM 73.4 °F - 71.6 °F 94% 29.89 in 6.2 mi West 11.5 mph - N/A   Scattered Clouds
7:50 AM 75.2 °F - 69.8 °F 83% 29.89 in 6.2 mi West 15.0 mph - N/A   Scattered Clouds
8:50 AM 77.0 °F - 71.6 °F 83% 29.89 in 6.2 mi West 16.1 mph - N/A   Scattered Clouds
9:20 AM 77.0 °F - 71.6 °F 83% 29.89 in 6.2 mi West 16.1 mph - N/A   Scattered Clouds
9:50 AM 78.8 °F - 64.4 °F 61% 29.89 in 6.2 mi WSW 13.8 mph - N/A   Partly Cloudy
10:50 AM 78.8 °F - 68.0 °F 69% 29.89 in 6.2 mi SW 12.7 mph - N/A   Partly Cloudy
11:20 AM 78.8 °F - 68.0 °F 69% 29.89 in 6.2 mi SW 12.7 mph - N/A   Partly Cloudy
11:50 AM 80.6 °F 82.3 °F 64.4 °F 58% 29.89 in 6.2 mi SSW 13.8 mph - N/A   Partly Cloudy
1:20 PM 80.6 °F 81.5 °F 60.8 °F 51% 29.86 in 6.2 mi SW 16.1 mph - N/A   Scattered Clouds
1:50 PM 80.6 °F 82.7 °F 66.2 °F 61% 29.86 in 6.2 mi SW 17.3 mph - N/A   Scattered Clouds
2:20 PM 80.6 °F 82.7 °F 66.2 °F 61% 29.86 in 6.2 mi SW 17.3 mph - N/A   Scattered Clouds
2:50 PM 78.8 °F - 68.0 °F 69% 29.83 in 6.2 mi West 17.3 mph - N/A   Scattered Clouds
3:20 PM 78.8 °F - 68.0 °F 69% 29.83 in 6.2 mi West 17.3 mph - N/A   Scattered Clouds
3:50 PM 78.8 °F - 68.0 °F 69% 29.83 in 6.2 mi West 15.0 mph - N/A   Partly Cloudy
4:20 PM 78.8 °F - 68.0 °F 69% 29.83 in 6.2 mi West 15.0 mph - N/A   Partly Cloudy
4:50 PM 78.8 °F - 68.0 °F 69% 29.83 in 6.2 mi WNW 17.3 mph - N/A   Partly Cloudy
5:50 PM 77.0 °F - 68.0 °F 74% 29.83 in 6.2 mi WNW 17.3 mph - N/A   Partly Cloudy
6:20 PM 77.0 °F - 68.0 °F 74% 29.83 in 6.2 mi WNW 17.3 mph - N/A   Partly Cloudy
6:50 PM 75.2 °F - 69.8 °F 83% 29.83 in 6.2 mi WNW 13.8 mph - N/A   Partly Cloudy
7:20 PM 75.2 °F - 69.8 °F 83% 29.83 in 6.2 mi WNW 13.8 mph - N/A   Partly Cloudy
7:50 PM 73.4 °F - 69.8 °F 88% 29.83 in 6.2 mi WNW 9.2 mph - N/A   Partly Cloudy
8:20 PM 73.4 °F - 69.8 °F 88% 29.83 in 6.2 mi Variable 3.5 mph - N/A   Partly Cloudy
8:50 PM 73.4 °F - 68.0 °F 83% 29.86 in 6.2 mi Variable 2.3 mph - N/A   Partly Cloudy